KSEAKFHR

Guest
Details From KSEA - Seattle Tacoma Intl
To KFHR - FRIDAY HARBOR
Flight Number -
Tags generated
Created
Modified
Stats Distance 71 nm / 131 km
Max Altitude 9,100 ft / 2,774 m
Waypoints 3
Social Downloads 0
Likes 0
Share VATSIM

Download

Looking for another format? Having issues loading an existing format? Contact us
Advertisement - Login to hide

Notes

Basic altitude profile: - Ascent Rate: 2500ft/min - Ascent Speed: 250kts - Cruise Altitude: 35000ft - Cruise Speed: 420kts - Descent Rate: 1500ft/min - Descent Speed: 250kts Options: - Use NATs: yes - Use PACOTS: yes - Use low airways: yes - Use high airways: yes

Route

KSEA LOFAL KFHR

ID Type Via Altitude Latitude Longitude Leg Dist Tot Dist Heading (true) Name
O KSEA APT - 0 ft / 0 m 47.45019˚ -122.31232˚ - 0 nm - Seattle Tacoma Intl
LOFAL FIX - 9,100 ft / 2,774 m 47.85155˚ -122.68052˚ 28 nm 28 nm 328° / 328° -
O KFHR APT - 0 ft / 0 m 48.52197˚ -123.02437˚ 42 nm 70 nm 341° / 341° FRIDAY HARBOR

Altitude Profile

Advertisement - Login to hide

KSEA

Details ICAO KSEA (SEA)
Name Seattle Tacoma Intl
Region United States
Timezone America/Los_Angeles (UTC-7.0)
Stats Elevation 433 ft / 132 m (AMSL)
Location 47.450188° -122.312320°
Runways 3
Magnetic Variation 15.621° E

METAR

KSEA 271953Z 31007KT 10SM BKN220 19/08 A3022 RMK AO2 SLP240 T01940083

Decode

TAF

KSEA 271735Z 2718/2824 28005KT P6SM SCT200 FM272200 32005KT P6SM SCT200 FM280300 33006KT P6SM SCT040 FM281000 16005KT P6SM BKN020 OVC030 FM281400 20003KT P6SM SCT010 BKN015 OVC020 TEMPO 2815/2818 5SM -DZ BR SCT007 BKN010 OVC015 FM281900 27004KT P6SM SCT018 BKN030 FM282200 30005KT P6SM SCT025 BKN035

Decode

Departure Runways

ID Width Length Bearing (true) Bearing (mag) Surface Threshold Offset Overrun Length
16C 151 ft / 46 m 9,429 ft / 2,874 m 180.34° 164.72° Concrete 0 ft / 0 m 223 ft / 68 m
16L 151 ft / 46 m 11,904 ft / 3,628 m 180.34° 164.72° Concrete 0 ft / 0 m 151 ft / 46 m
16R 151 ft / 46 m 8,503 ft / 2,592 m 180.34° 164.72° Concrete 0 ft / 0 m 164 ft / 50 m
34C 151 ft / 46 m 9,429 ft / 2,874 m 0.34° 344.72° Concrete 0 ft / 0 m 394 ft / 120 m
34L 151 ft / 46 m 8,503 ft / 2,592 m 0.34° 344.72° Concrete 0 ft / 0 m 394 ft / 120 m
34R 151 ft / 46 m 11,904 ft / 3,628 m 0.34° 344.72° Concrete 0 ft / 0 m 400 ft / 122 m

KFHR

Details ICAO KFHR (FRD)
Name FRIDAY HARBOR
Region United States
Timezone America/Los_Angeles (UTC-7.0)
Stats Elevation 113 ft / 34 m (AMSL)
Location 48.521966° -123.024368°
Runways 1
Magnetic Variation 16.005° E

METAR

KFHR 271953Z AUTO 21005KT 10SM CLR 18/07 A3024 RMK AO2 SLP241 T01830067 TSNO

Decode

TAF

Not found

Destination Runways

ID Width Length Bearing (true) Bearing (mag) Surface Threshold Offset Overrun Length
16 75 ft / 23 m 3,402 ft / 1,037 m 177.06° 161.06° Asphalt 0 ft / 0 m 0 ft / 0 m
34 75 ft / 23 m 3,402 ft / 1,037 m 357.06° 341.06° Asphalt 0 ft / 0 m 0 ft / 0 m

Popular Alternatives